Terminal Aerodrome Forecast
Issued by NWS

Home | Current Version | Previous Version | Text Only | Print | Product List | Glossary On
Versions: 1 2 3 4 5 6 7 8 9 10 11 12 13 14 15 16 17 18 19 20 21 22 23 24 25 26 27 28 29
000
FTUS41 KCTP 081746
TAFAOO
TAF
KAOO 081746Z 0818/0918 28019G25KT P6SM FEW045
     FM090000 28015G20KT P6SM OVC035
     FM090600 28017G24KT P6SM VCSH OVC025
     FM091200 28015G22KT 3SM -SHSN OVC025=

USA.gov is the U.S. government's official web portal to all federal, state and local government web resources and services.